Location: Ellingshausen
(50.5460°N, 10.4723°E)
Time: 13:16:14
(UTC+00:00)

Cosmos 676 Rocket - Pass Details

Date: 17 April 2026
Orbit: 750 x 779 km, 74.0° (Epoch: 19 May)

Event Time Altitude Azimuth Distance (km) Brightness Sun altitude
Rises 01:01:36 0° 321° (NW) 3,263 7.5 -25.0°
Reaches altitude 10° 01:05:16 10° 295° (WNW) 2,323 6.4 -24.7°
Enters shadow 01:05:52 11° 289° (WNW) 2,230 6.3 -24.6°
